Location: Winterland
(47.1574°N, 55.3067°W)
Time: 14:34:50
(UTC+00:00)

Tiangong - Pass Details

Date: 19 August 2022
Orbit: 377 x 382 km, 41.5° (Epoch: 27 September)

Event Time Altitude Azimuth Distance (km) Brightness Sun altitude
Rises 23:29:43 0° 241° (WSW) 2,236 2.2 -7.7°
Reaches altitude 10° 23:31:59 10° 228° (SW) 1,384 0.9 -8.1°
Maximum altitude 23:34:36 25° 170° (S) 812 -0.8 -8.5°
Enters shadow 23:36:45 13° 118° (ESE) 1,227 -0.3 -8.8°
